Simultaneous Nadir Overpasses (SNOs) Predictions

Prediction of SNOs between LANDSAT-8 and NOAA-19 Satellite Orbit:

Table of predicted SNOs for the next 14.0 days since TLE Epoch: 2/7/2016
Index Date (LANDSAT-8) Time (LANDSAT-8) Lat,Lon (LANDSAT-8) SZA (LANDSAT-8 ) Date (NOAA-19) Time (NOAA-19) Lat,Lon (NOAA-19) SZA (NOAA-19 ) Distance(km) Time Diff (sec)
1 02/10/2016 00:40:07 -74.23, -6.44 91.27 02/10/2016 00:39:24 -74.23, -6.53 91.28 2.75 43
2 02/10/2016 01:29:35 74.10, 160.90 88.59 02/10/2016 01:30:27 74.12, 160.99 88.61 3.41 52
3 02/12/2016 06:13:50 74.16, 89.98 87.94 02/12/2016 06:13:37 74.18, 90.08 87.95 3.59 13
4 02/12/2016 07:03:19 -74.09,-102.54 92.15 02/12/2016 07:04:32 -74.10,-102.46 92.14 2.91 73
5 02/14/2016 10:58:03 74.32, 19.29 87.36 02/14/2016 10:56:50 74.39, 18.77 87.43 16.99 73
6 02/14/2016 11:47:33 -74.21,-173.36 92.77 02/14/2016 11:47:42 -74.19,-173.42 92.79 2.67 9
7 02/16/2016 16:31:48 -74.26, 115.70 93.47 02/16/2016 16:30:51 -74.23, 115.73 93.50 3.14 57
8 02/16/2016 17:21:15 74.17, -76.86 86.43 02/16/2016 17:21:56 74.17, -76.87 86.43 0.68 41
9 02/18/2016 22:05:30 74.22,-147.83 85.71 02/18/2016 22:05:06 74.25,-147.83 85.74 3.44 24
10 02/18/2016 22:54:59 -74.15, 19.66 94.37 02/18/2016 22:56:00 -74.17, 19.64 94.35 2.09 61
11 02/21/2016 02:49:34 74.82, 142.56 85.53 02/21/2016 02:48:28 74.90, 139.59 85.62 86.83 66
12 02/21/2016 03:39:13 -74.24, -51.20 95.07 02/21/2016 03:39:09 -74.22, -51.23 95.09 2.72 4
